[[{"header":{"parameterUnit":"m.s-1","parameterCategory":1,"la1":30.2991,"la2":30.254,"lo1":-89.0895,"lo2":-89.0444,"dy":0.0017,"dx":0.0017,"nx":28,"ny":28,"refTime":"2023-09-22T09:00:00:Z","depth":0,"parameterNumber":2,"parameterNumberName":"U-component_of_WINDS"},"data":[0,0,0,0,0,0,0,0,0,0,0,0,0,0,0,0,0,0,0,0,0,0,0,0,0,0,0,0,0,0,0,0,0,0,0,0,0,0,0,0,0,0,0,0,0,0,0,0,0,0,0,0,0,0,0,0,0,0,-2.9326,-2.9325,0,-2.9218,-2.9217,-2.9216,-2.9055,-2.9052,-2.9049,-2.9046,-2.8936,-2.8936,-2.8936,0,0,0,0,0,0,0,0,0,0,0,0,0,-2.9396,-2.9395,-2.9327,-2.9325,-2.9324,-2.9218,-2.9217,-2.9215,-2.9055,-2.9052,-2.9048,-2.9045,-2.8936,-2.8936,-2.8936,0,0,0,0,0,0,0,0,0,0,0,0,0,-2.9335,-2.9395,-2.9327,-2.9231,-2.9221,-2.9219,-2.9217,-2.9215,-2.9056,-2.9051,-2.9047,-2.9043,-2.8936,-2.8936,-2.8936,-2.9018,0,0,-2.8934,-2.8934,0,0,0,0,0,0,0,0,-2.9338,-2.9332,-2.9247,-2.9238,-2.9227,-2.9145,-2.92,-2.9149,-2.9057,-2.9119,-2.9046,-2.9041,-2.9009,-2.9003,-2.8992,-2.9013,-2.9008,-2.8934,-2.8934,-2.8934,-2.8934,0,0,0,0,0,0,0,-2.9343,-2.9336,-2.9284,-2.9246,-2.9234,-2.9194,-2.918,-2.919,-2.9089,-2.9113,-2.9101,-2.909,-2.9003,-2.8992,-2.8988,-2.9006,-2.8934,-2.8934,-2.8934,-2.8933,-2.9088,-2.9092,0,0,0,0,0,0,-2.9361,-2.934,-2.9287,-2.928,-2.9273,-2.9196,-2.9181,-2.9176,-2.9089,-2.9071,-2.9094,-2.9083,-2.8995,-2.8989,-2.8983,-2.9072,-2.8934,-2.8933,-2.8933,-2.9083,-2.9089,-2.9093,0,0,0,0,0,0,-2.9363,-2.9358,-2.9291,-2.9307,-2.9296,-2.9199,-2.9195,-2.9176,-2.9165,-2.9074,-2.9056,-2.9102,-2.8992,-2.8984,-2.901,-2.9066,-2.8933,-2.8933,-2.9078,-2.9085,-2.9091,-2.9253,0,0,0,0,0,0,-2.9366,-2.9359,-2.9389,-2.9309,-2.9295,-2.932,-2.9198,-2.9177,-2.9165,-2.9149,-2.9076,-2.906,-2.8988,-2.9012,-2.901,-2.9063,-2.8932,-2.9073,-2.9081,-2.9089,-2.9242,-2.9264,-2.9283,0,0,0,0,0,-2.9369,-2.944,-2.9392,-2.9386,-2.9331,-2.9324,-2.9316,-2.9231,-2.917,-2.9199,-2.9141,-2.9063,-2.9061,-2.9016,-2.9012,-2.9067,-2.9069,-2.9079,-2.9088,-2.9232,-2.9259,-2.9282,0,0,0,0,0,0,-2.953,-2.9427,-2.9373,-2.942,-2.9382,-2.9297,-2.9331,-2.9262,-2.9241,-2.9227,-2.9123,-2.9108,-2.9147,-2.9109,-2.906,-2.9141,-2.9053,-2.9063,-2.9164,-2.9188,-2.9209,-2.9216,-2.8932,0,0,0,0,0,-2.9571,-2.9573,-2.9484,-2.9534,-2.9517,-2.9428,-2.9422,-2.936,-2.9316,-2.9299,-2.9242,-2.9203,-2.9193,-2.9189,-2.9175,-2.9236,-2.9217,-2.9272,-2.9292,-2.931,-2.9319,-2.9347,-2.9369,-2.9126,-2.9126,-2.9125,0,0,-2.9655,-2.96,-2.9608,-2.9565,-2.9528,-2.9533,-2.9415,-2.9426,-2.9428,-2.93,-2.932,-2.9278,-2.9227,-2.9271,-2.9287,-2.9241,-2.9382,-2.9322,-2.9337,-2.9336,-2.9359,-2.9382,-2.9403,-2.9132,-2.9131,-2.913,0,0,-2.9812,-2.9771,-2.9807,-2.9772,-2.9717,-2.9657,-2.9667,-2.9592,-2.9558,-2.9577,-2.9481,-2.9483,-2.9469,-2.9436,-2.9418,-2.9562,-2.9489,-2.9561,-2.9667,-2.9696,-2.9715,-2.9732,-2.9782,-2.9801,-2.9571,-2.9571,-2.9571,0,-2.9924,-2.9926,-2.9835,-2.985,-2.9834,-2.9719,-2.9755,-2.9726,-2.967,-2.9661,-2.961,-2.9589,-2.9547,-2.9581,-2.9616,-2.9606,-2.9612,-2.9568,-2.972,-2.9735,-2.9749,-2.9796,-2.9815,-2.958,-2.9579,-2.9578,-2.9577,0,-3.0066,-3.007,-3.0106,-3.0054,-3.0042,-3.0069,-2.9981,-2.998,-2.9919,-2.9865,-2.9885,-2.9831,-2.9803,-2.9807,-2.9748,-2.9832,-2.9805,-2.9739,-2.9648,-2.9783,-2.9825,-2.9842,-2.9593,-2.9589,-2.9587,-2.9585,0,0,-3.032,-3.0217,-3.0231,-3.0206,-3.0137,-3.0138,-3.016,-3.0133,-3.0133,-3.0099,-3.0113,-3.0104,-3.0042,-3.0021,-2.9958,-2.9983,-3.01,-2.9913,-2.991,-2.9948,-3.0188,-3.0237,-3.0259,-3.0051,-3.0054,-3.0057,-3.0191,0,-3.0461,-3.049,-3.0408,-3.0458,-3.046,-3.0351,-3.0369,-3.0329,-3.0279,-3.0274,-3.0218,-3.0213,-3.0132,-3.0119,-3.0139,-3.0081,-3.0146,-3.0071,-3.0063,-3.0064,-3.0077,-3.0281,-3.0333,-3.0463,-3.0207,-3.021,-3.0212,0,-3.0629,-3.0603,-3.0653,-3.0581,-3.0579,-3.0597,-3.0565,-3.0561,-3.0514,-3.0475,-3.0453,-3.0379,-3.0394,-3.0308,-3.0327,-3.0278,-3.027,-3.0242,-3.0244,-3.0239,-3.0145,-3.028,-3.0502,-3.0522,-3.0237,-3.0235,-3.0233,0,-3.0807,-3.0785,-3.0811,-3.0793,-3.071,-3.0725,-3.0691,-3.064,-3.0628,-3.0601,-3.0592,-3.0568,-3.0554,-3.0536,-3.0457,-3.0403,-3.0486,-3.0394,-3.0454,-3.0456,-3.0475,-3.0474,-3.0698,-3.0473,-3.0473,-3.0472,-3.0472,0,-3.0972,-3.1007,-3.089,-3.0906,-3.0942,-3.0848,-3.0886,-3.0841,-3.0796,-3.0801,-3.0706,-3.0714,-3.061,-3.0605,-3.0544,-3.0569,-3.0564,-3.0533,-3.0515,-3.054,-3.0544,-3.0532,-3.0521,-3.0477,-3.0476,-3.0475,-3.0475,0,-3.1176,-3.1099,-3.1121,-3.1041,-3.1021,-3.1051,-3.0982,-3.0994,-3.0938,-3.0947,-3.0943,-3.0856,-3.0846,-3.0766,-3.0739,-3.0697,-3.0745,-3.0711,-3.0761,-3.0749,-3.0813,-3.0808,-3.1035,-3.106,-3.0822,-3.0824,-3.0826,0,-3.1286,-3.131,-3.1232,-3.1229,-3.1199,-3.1196,-3.1184,-3.1093,-3.1084,-3.1032,-3.105,-3.1032,-3.1013,-3.1003,-3.0937,-3.0915,-3.0879,-3.096,-3.0875,-3.0899,-3.0878,-3.0877,-3.0879,-3.0978,-3.0981,-3.0984,-3.0986,0,-3.1488,-3.1449,-3.1435,-3.1408,-3.1396,-3.1371,-3.134,-3.1343,-3.1242,-3.1237,-3.1226,-3.1211,-3.1183,-3.1166,-3.1133,-3.1098,-3.1025,-3.1013,-3.1026,-3.105,-3.1077,-3.1062,-3.0808,-3.1008,-3.1006,-3.1004,-3.1003,-3.1002,-3.1646,-3.1662,-3.161,-3.1598,-3.1565,-3.1538,-3.1545,-3.149,-3.1479,-3.1448,-3.1396,-3.1392,-3.1343,-3.1291,-3.1262,-3.1258,-3.1215,-3.1233,-3.1238,-3.1243,-3.1256,-3.108,-3.1251,-3.1251,-3.125,-3.1249,-3.1249,0,-3.1842,-3.1803,-3.1793,-3.1752,-3.1743,-3.1676,-3.1638,-3.1634,-3.1632,-3.1593,-3.1576,-3.1563,-3.1547,-3.148,-3.1456,-3.1465,-3.1431,-3.1462,-3.146,-3.1452,-3.1296,-3.1287,-3.149,-3.149,-3.149,-3.149,-3.149,-3.149,-3.1943,-3.1966,-3.1921,-3.1927,-3.1887,-3.1883,-3.1867,-3.1841,-3.1809,-3.1799,-3.1785,-3.1741,-3.1691,-3.1663,-3.1645,-3.1625,-3.162,-3.1662,-3.1632,-3.1487,-3.1464,-3.1441,-3.1432,-3.1662,-3.1662,-3.1788,-3.1789,-3.179]},{"header":{"parameterUnit":"m.s-1","parameterCategory":1,"la1":30.2991,"la2":30.254,"lo1":-89.0895,"lo2":-89.0444,"dy":0.0017,"dx":0.0017,"nx":28,"ny":28,"refTime":"2023-09-22T09:00:00:Z","depth":0,"parameterNumber":3,"parameterNumberName":"V-component_of_WINDS"},"data":[0,0,0,0,0,0,0,0,0,0,0,0,0,0,0,0,0,0,0,0,0,0,0,0,0,0,0,0,0,0,0,0,0,0,0,0,0,0,0,0,0,0,0,0,0,0,0,0,0,0,0,0,0,0,0,0,0,0,-0.9315,-0.9317,0,-0.9504,-0.9506,-0.9508,-0.9587,-0.9587,-0.9586,-0.9586,-0.978,-0.9786,-0.9791,0,0,0,0,0,0,0,0,0,0,0,0,0,-0.9022,-0.9027,-0.9315,-0.9317,-0.932,-0.9504,-0.9506,-0.9509,-0.9587,-0.9587,-0.9586,-0.9586,-0.9778,-0.9785,-0.9792,0,0,0,0,0,0,0,0,0,0,0,0,0,-0.9174,-0.9029,-0.9315,-0.9381,-0.9389,-0.9503,-0.9506,-0.951,-0.9587,-0.9587,-0.9586,-0.9586,-0.9776,-0.9784,-0.9792,-0.9855,0,0,-0.9818,-0.9821,0,0,0,0,0,0,0,0,-0.9165,-0.9185,-0.9369,-0.9377,-0.9386,-0.9522,-0.9474,-0.9625,-0.9588,-0.9512,-0.9586,-0.9585,-0.9695,-0.971,-0.9746,-0.9864,-0.9873,-0.9819,-0.9824,-0.9827,-0.9829,0,0,0,0,0,0,0,-0.9155,-0.9177,-0.939,-0.9371,-0.9382,-0.9401,-0.9422,-0.9503,-0.9604,-0.9519,-0.9525,-0.9546,-0.9699,-0.9738,-0.9751,-0.9875,-0.9818,-0.9826,-0.9831,-0.9834,-1.0054,-1.0055,0,0,0,0,0,0,-0.9133,-0.9168,-0.9384,-0.9396,-0.9272,-0.9407,-0.9431,-0.9478,-0.9604,-0.9622,-0.9546,-0.9549,-0.9724,-0.9742,-0.9759,-0.984,-0.9827,-0.9835,-0.984,-1.0053,-1.0054,-1.0055,0,0,0,0,0,0,-0.9126,-0.9152,-0.9376,-0.9283,-0.9313,-0.9413,-0.9466,-0.9482,-0.9522,-0.9625,-0.9643,-0.9568,-0.9725,-0.9747,-0.9831,-0.9848,-0.9839,-0.9846,-1.0052,-1.0054,-1.0055,-1.0004,0,0,0,0,0,0,-0.9118,-0.9149,-0.9174,-0.9283,-0.9318,-0.9445,-0.9467,-0.9487,-0.9536,-0.9541,-0.9649,-0.9667,-0.9726,-0.9818,-0.9839,-0.9859,-0.9853,-1.0051,-1.0053,-1.0054,-1.0004,-1.0003,-1.0002,0,0,0,0,0,-0.9107,-0.9152,-0.9174,-0.92,-0.9351,-0.9446,-0.9466,-0.9532,-0.9537,-0.9563,-0.9629,-0.9663,-0.9843,-0.9826,-0.985,-0.9873,-1.005,-1.0052,-1.0054,-1.0005,-1.0003,-1.0002,0,0,0,0,0,0,-0.9042,-0.9167,-0.9194,-0.9276,-0.9349,-0.9459,-0.9493,-0.9529,-0.9603,-0.9605,-0.9684,-0.9708,-0.9785,-0.9838,-0.9816,-0.9941,-0.9949,-0.9956,-0.9903,-0.9903,-0.9902,-0.9888,-0.9859,0,0,0,0,0,-0.9037,-0.9103,-0.9209,-0.9271,-0.9307,-0.9393,-0.9437,-0.9482,-0.9562,-0.9593,-0.9665,-0.9741,-0.9815,-0.9862,-0.9935,-1.0012,-1.0037,-1.004,-1.0039,-1.0038,-1.0043,-1.0088,-1.009,-1.0062,-1.0062,-1.0062,0,0,-0.9028,-0.9104,-0.9141,-0.926,-0.9322,-0.9389,-0.9419,-0.9488,-0.9539,-0.9604,-0.9687,-0.9743,-0.9833,-0.9913,-0.9952,-0.9959,-1.0056,-1.004,-1.0038,-1.0045,-1.009,-1.0092,-1.0095,-1.0063,-1.0063,-1.0063,0,0,-0.9045,-0.9109,-0.9168,-0.923,-0.9324,-0.9381,-0.9395,-0.9499,-0.9538,-0.9623,-0.9673,-0.9734,-0.9859,-0.9921,-0.9969,-1.0009,-1.0044,-1.0031,-1.0025,-1.0068,-1.007,-1.0073,-1.0087,-1.0091,-1.0035,-1.0035,-1.0035,0,-0.9021,-0.9124,-0.9194,-0.926,-0.9311,-0.9372,-0.9432,-0.9489,-0.9602,-0.9635,-0.9642,-0.98,-0.9865,-0.9961,-0.997,-1.0007,-1.0025,-1.0019,-1.0064,-1.0067,-1.0071,-1.0085,-1.009,-1.0033,-1.0033,-1.0034,-1.0034,0,-0.909,-0.9161,-0.9197,-0.9304,-0.9359,-0.9421,-0.9501,-0.9548,-0.9588,-0.9644,-0.9729,-0.981,-0.99,-0.9926,-0.9966,-1.0028,-1.0029,-1.0049,-1.0059,-1.007,-1.0085,-1.0091,-1.003,-1.0031,-1.0031,-1.0032,0,0,-0.9073,-0.9217,-0.9229,-0.9279,-0.9386,-0.9442,-0.9507,-0.9596,-0.9635,-0.971,-0.9767,-0.9871,-0.989,-0.9944,-0.9992,-1.0029,-1.0055,-1.0044,-1.0048,-1.0044,-1.0129,-1.0113,-1.0119,-1.0079,-1.008,-1.0081,-1.0121,0,-0.9104,-0.9224,-0.9289,-0.9382,-0.9447,-0.9506,-0.9563,-0.9636,-0.969,-0.9754,-0.9814,-0.9886,-0.9906,-0.9939,-0.9978,-1.0044,-1.0074,-1.0042,-1.0133,-1.0135,-1.0109,-1.0127,-1.0111,-1.0145,-1.0127,-1.0128,-1.0129,0,-0.9158,-0.9232,-0.9331,-0.9431,-0.9461,-0.9511,-0.9598,-0.9658,-0.9741,-0.9778,-0.9838,-0.9885,-0.9956,-0.996,-1.006,-1.0037,-1.0078,-1.0116,-1.0119,-1.013,-1.0133,-1.0139,-1.0157,-1.0162,-1.0139,-1.0138,-1.0138,0,-0.9135,-0.926,-0.9335,-0.9376,-0.9494,-0.9528,-0.9579,-0.9662,-0.9711,-0.9786,-0.9818,-0.9901,-0.9946,-1.0009,-1.0076,-1.0073,-1.0169,-1.0179,-1.0202,-1.02,-1.022,-1.0218,-1.0245,-1.0246,-1.0245,-1.0245,-1.0245,0,-0.9164,-0.9222,-0.9327,-0.9373,-0.944,-0.9513,-0.9578,-0.9634,-0.9706,-0.9765,-0.9821,-0.9874,-0.996,-1.0025,-1.0078,-1.0152,-1.0172,-1.0204,-1.0218,-1.02,-1.0196,-1.0228,-1.0228,-1.0247,-1.0247,-1.0246,-1.0246,0,-0.915,-0.9222,-0.9308,-0.9413,-0.9441,-0.9486,-0.9576,-0.9623,-0.968,-0.9753,-0.9775,-0.9864,-0.9943,-1.0016,-1.0121,-1.0157,-1.0232,-1.0249,-1.0204,-1.0211,-1.023,-1.0227,-1.028,-1.029,-1.0282,-1.0282,-1.0282,0,-0.9164,-0.921,-0.932,-0.9363,-0.9412,-0.9481,-0.9531,-0.9605,-0.9655,-0.9752,-0.9788,-0.987,-0.9941,-1.0063,-1.0138,-1.0218,-1.0238,-1.0251,-1.0251,-1.0231,-1.0239,-1.0236,-1.0241,-1.025,-1.025,-1.0249,-1.0249,0,-0.9181,-0.9214,-0.9284,-0.9366,-0.9424,-0.9493,-0.9563,-0.9595,-0.9682,-0.9735,-0.9816,-0.987,-0.9977,-1.0059,-1.0148,-1.0201,-1.024,-1.0248,-1.0258,-1.024,-1.0212,-1.0228,-1.0201,-1.0247,-1.0247,-1.0248,-1.0248,-1.0248,-0.9182,-0.9225,-0.9309,-0.9385,-0.9446,-0.951,-0.956,-0.9622,-0.9691,-0.9784,-0.9823,-0.9905,-0.9987,-1.011,-1.0163,-1.0228,-1.0237,-1.025,-1.0254,-1.0256,-1.0253,-1.0201,-1.0244,-1.0245,-1.0245,-1.0245,-1.0245,0,-0.9202,-0.9258,-0.9327,-0.9424,-0.9483,-0.9514,-0.9594,-0.9642,-0.9713,-0.9786,-0.9853,-0.9946,-1.0025,-1.0106,-1.0189,-1.0226,-1.0246,-1.0246,-1.0244,-1.0255,-1.024,-1.0224,-1.0228,-1.0228,-1.0228,-1.0228,-1.0228,-1.0228,-0.9219,-0.9295,-0.9338,-0.9444,-0.9501,-0.9581,-0.9624,-0.9683,-0.9742,-0.9843,-0.9909,-0.9961,-1.0037,-1.0126,-1.02,-1.0222,-1.025,-1.0245,-1.0271,-1.0256,-1.0257,-1.0257,-1.0242,-1.025,-1.025,-1.0282,-1.0282,-1.0282]}]]